Location: Cedar Brake
(32.2526°N, 97.8459°W)
Time: 19:26:37
(UTC+00:00)

Cosmos 2123 Rocket - Pass Details

Date: 22 April 2026
Orbit: 962 x 990 km, 82.9° (Epoch: 20 May)

Event Time Altitude Azimuth Distance (km) Brightness Sun altitude
Rises 03:56:16 0° 348° (NNW) 3,690 7.8 -32.3°
Reaches altitude 10° 03:58:50 10° 344° (NNW) 2,742 7.0 -32.7°
Enters shadow 04:04:52 56° 272° (W) 1,166 4.5 -33.6°
